Time,TemperatureF,DewpointF,PressureIn,WindDirection,WindDirectionDegrees,WindSpeedMPH,WindSpeedGustMPH,Humidity,HourlyPrecipIn,Conditions,Clouds,dailyrainin,SolarRadiationWatts/m^2,SoftwareType,DateUTC
2013-07-30 00:00:00,72.5,70.4,29.99,WSW,243,3.0,10.0,93,0.00,OVC,OVC,0.00,0.0,WeatherDisplay:10.37,2013-07-30 04:00:00,
2013-07-30 00:05:00,72.5,70.4,29.99,SW,231,3.0,10.0,93,0.00,BKN,BKN,0.00,0.0,WeatherDisplay:10.37,2013-07-30 04:05:00,
2013-07-30 00:15:00,72.4,70.3,29.99,WSW,246,1.0,8.0,93,0.00,BKN,BKN,0.00,0.0,WeatherDisplay:10.37,2013-07-30 04:15:00,
2013-07-30 00:20:00,72.3,70.2,29.99,West,259,2.0,5.0,93,0.00,BKN,BKN,0.00,0.0,WeatherDisplay:10.37,2013-07-30 04:20:00,
2013-07-30 00:25:00,72.2,70.1,29.99,WSW,253,2.0,5.0,93,0.00,BKN,BKN,0.00,0.0,WeatherDisplay:10.37,2013-07-30 04:25:00,
2013-07-30 00:30:00,72.1,70.0,29.98,WSW,244,1.0,4.0,93,0.00,BKN,BKN,0.00,0.0,WeatherDisplay:10.37,2013-07-30 04:30:00,
2013-07-30 00:35:00,72.0,69.9,29.98,WSW,253,2.0,7.0,93,0.00,BKN,BKN,0.00,0.0,WeatherDisplay:10.37,2013-07-30 04:35:00,
2013-07-30 00:40:00,71.9,69.8,29.98,WSW,246,2.0,6.0,93,0.00,BKN,BKN,0.00,0.0,WeatherDisplay:10.37,2013-07-30 04:40:00,
2013-07-30 00:45:00,71.9,69.8,29.98,SW,227,2.0,7.0,93,0.00,BKN,BKN,0.00,0.0,WeatherDisplay:10.37,2013-07-30 04:45:00,
2013-07-30 00:50:00,71.9,69.8,29.98,SW,226,3.0,5.0,93,0.00,BKN,BKN,0.00,0.0,WeatherDisplay:10.37,2013-07-30 04:50:00,
2013-07-30 01:00:00,71.8,69.7,29.97,SW,232,1.0,4.0,93,0.00,BKN,BKN,0.00,0.0,WeatherDisplay:10.37,2013-07-30 05:00:00,
2013-07-30 01:05:00,71.8,69.7,29.97,WSW,240,1.0,5.0,93,0.00,SCT,SCT,0.00,0.0,WeatherDisplay:10.37,2013-07-30 05:05:00,
2013-07-30 01:10:00,71.7,69.6,29.97,SW,234,1.0,3.0,93,0.00,SCT,SCT,0.00,0.0,WeatherDisplay:10.37,2013-07-30 05:10:00,
2013-07-30 01:15:00,71.7,69.5,29.97,SW,222,1.0,4.0,93,0.00,SCT,SCT,0.00,0.0,WeatherDisplay:10.37,2013-07-30 05:15:00,
2013-07-30 01:20:00,71.6,69.8,29.97,WSW,239,1.0,3.0,94,0.00,SCT,SCT,0.00,0.0,WeatherDisplay:10.37,2013-07-30 05:20:00,
2013-07-30 01:25:00,71.4,69.6,29.97,SW,230,1.0,4.0,94,0.00,SCT,SCT,0.00,0.0,WeatherDisplay:10.37,2013-07-30 05:25:00,
2013-07-30 01:30:00,71.3,69.5,29.97,SW,222,0.0,3.0,94,0.00,SCT,SCT,0.00,0.0,WeatherDisplay:10.37,2013-07-30 05:30:00,
2013-07-30 01:35:00,71.2,69.4,29.97,SW,215,2.0,4.0,94,0.00,SCT,SCT,0.00,0.0,WeatherDisplay:10.37,2013-07-30 05:35:00,
2013-07-30 01:40:00,71.1,69.3,29.97,SSW,213,1.0,4.0,94,0.00,SCT,SCT,0.00,0.0,WeatherDisplay:10.37,2013-07-30 05:40:00,
2013-07-30 01:45:00,71.0,69.2,29.97,SW,215,1.0,3.0,94,0.00,SCT,SCT,0.00,0.0,WeatherDisplay:10.37,2013-07-30 05:45:00,
2013-07-30 01:50:00,70.9,69.1,29.97,SW,223,1.0,2.0,94,0.00,SCT,SCT,0.00,0.0,WeatherDisplay:10.37,2013-07-30 05:50:00,
2013-07-30 01:55:00,70.8,69.0,29.97,SW,230,0.0,3.0,94,0.00,SCT,SCT,0.00,0.0,WeatherDisplay:10.37,2013-07-30 05:55:00,
2013-07-30 02:00:00,70.7,68.9,29.97,WSW,238,0.0,3.0,94,0.00,SCT,SCT,0.00,0.0,WeatherDisplay:10.37,2013-07-30 06:00:00,
2013-07-30 02:05:00,70.6,68.8,29.97,WSW,238,0.0,3.0,94,0.00,CLR,CLR,0.00,0.0,WeatherDisplay:10.37,2013-07-30 06:05:00,
2013-07-30 02:10:00,70.5,68.7,29.97,WSW,238,0.0,2.0,94,0.00,CLR,CLR,0.00,0.0,WeatherDisplay:10.37,2013-07-30 06:10:00,
2013-07-30 02:15:00,70.4,68.6,29.97,WSW,238,0.0,9.0,94,0.00,CLR,CLR,0.00,0.0,WeatherDisplay:10.37,2013-07-30 06:15:00,
2013-07-30 02:20:00,70.3,68.5,29.97,WSW,238,0.0,2.0,94,0.00,CLR,CLR,0.00,0.0,WeatherDisplay:10.37,2013-07-30 06:20:00,
2013-07-30 02:25:00,70.2,68.4,29.97,WSW,238,0.0,2.0,94,0.00,CLR,CLR,0.00,0.0,WeatherDisplay:10.37,2013-07-30 06:25:00,
2013-07-30 02:30:00,70.1,68.3,29.97,WSW,238,1.0,2.0,94,0.00,CLR,CLR,0.00,0.0,WeatherDisplay:10.37,2013-07-30 06:30:00,
2013-07-30 02:40:00,69.8,68.0,29.97,WSW,238,0.0,1.0,94,0.00,CLR,CLR,0.00,0.0,WeatherDisplay:10.37,2013-07-30 06:40:00,
2013-07-30 02:45:00,69.6,68.1,29.97,WSW,241,0.0,2.0,95,0.00,CLR,CLR,0.00,0.0,WeatherDisplay:10.37,2013-07-30 06:45:00,
2013-07-30 02:50:00,69.5,68.0,29.97,WSW,242,0.0,1.0,95,0.00,CLR,CLR,0.00,0.0,WeatherDisplay:10.37,2013-07-30 06:50:00,
2013-07-30 03:00:00,69.3,67.8,29.97,WSW,242,0.0,1.0,95,0.00,CLR,CLR,0.00,0.0,WeatherDisplay:10.37,2013-07-30 07:00:00,
2013-07-30 03:05:00,69.2,67.7,29.97,WSW,242,0.0,0.0,95,0.00,CLR,CLR,0.00,0.0,WeatherDisplay:10.37,2013-07-30 07:05:00,
2013-07-30 03:15:00,69.0,67.5,29.97,WSW,242,0.0,1.0,95,0.00,CLR,CLR,0.00,0.0,WeatherDisplay:10.37,2013-07-30 07:15:00,
2013-07-30 03:20:00,68.9,67.4,29.97,WSW,242,0.0,1.0,95,0.00,CLR,CLR,0.00,0.0,WeatherDisplay:10.37,2013-07-30 07:20:00,
2013-07-30 03:25:00,68.8,67.3,29.97,WSW,242,0.0,1.0,95,0.00,CLR,CLR,0.00,0.0,WeatherDisplay:10.37,2013-07-30 07:25:00,
2013-07-30 03:30:00,68.8,67.3,29.96,WSW,242,0.0,0.0,95,0.00,CLR,CLR,0.00,0.0,WeatherDisplay:10.37,2013-07-30 07:30:00,
2013-07-30 03:40:00,68.6,67.1,29.96,WSW,242,0.0,1.0,95,0.00,CLR,CLR,0.00,0.0,WeatherDisplay:10.37,2013-07-30 07:40:00,
2013-07-30 03:45:00,68.4,66.9,29.96,WSW,242,1.0,2.0,95,0.00,CLR,CLR,0.00,0.0,WeatherDisplay:10.37,2013-07-30 07:45:00,
2013-07-30 03:50:00,68.2,66.7,29.96,WNW,291,1.0,3.0,95,0.00,CLR,CLR,0.00,0.0,WeatherDisplay:10.37,2013-07-30 07:50:00,
2013-07-30 03:55:00,68.1,66.6,29.96,NNW,331,2.0,5.0,95,0.00,CLR,CLR,0.00,0.0,WeatherDisplay:10.37,2013-07-30 07:55:00,
2013-07-30 04:00:00,68.1,66.9,29.96,NNW,335,1.0,5.0,96,0.00,CLR,CLR,0.00,0.0,WeatherDisplay:10.37,2013-07-30 08:00:00,
2013-07-30 04:10:00,68.1,66.9,29.96,NNW,332,2.0,6.0,96,0.00,CLR,CLR,0.00,0.0,WeatherDisplay:10.37,2013-07-30 08:10:00,
2013-07-30 04:15:00,68.1,66.9,29.96,NNW,334,2.0,7.0,96,0.00,CLR,CLR,0.00,0.0,WeatherDisplay:10.37,2013-07-30 08:15:00,
2013-07-30 04:20:00,68.1,66.9,29.96,NNW,343,3.0,5.0,96,0.00,CLR,CLR,0.00,0.0,WeatherDisplay:10.37,2013-07-30 08:20:00,
2013-07-30 04:25:00,68.1,66.9,29.96,North,350,1.0,6.0,96,0.00,CLR,CLR,0.00,0.0,WeatherDisplay:10.37,2013-07-30 08:25:00,
2013-07-30 04:30:00,68.1,66.9,29.97,North,349,3.0,7.0,96,0.00,CLR,CLR,0.00,0.0,WeatherDisplay:10.37,2013-07-30 08:30:00,
2013-07-30 04:35:00,68.1,67.0,29.97,North,351,5.0,7.0,96,0.00,CLR,CLR,0.00,0.0,WeatherDisplay:10.37,2013-07-30 08:35:00,
2013-07-30 04:40:00,68.3,67.1,29.97,North,357,6.0,10.0,96,0.00,CLR,CLR,0.00,0.0,WeatherDisplay:10.37,2013-07-30 08:40:00,
2013-07-30 04:50:00,68.6,67.4,29.97,North,356,7.0,12.0,96,0.00,CLR,CLR,0.00,0.0,WeatherDisplay:10.37,2013-07-30 08:50:00,
2013-07-30 05:00:00,68.4,67.2,29.98,North,2,3.0,10.0,96,0.00,CLR,CLR,0.00,0.0,WeatherDisplay:10.37,2013-07-30 09:00:00,
2013-07-30 05:05:00,68.1,66.9,29.98,North,9,7.0,10.0,96,0.00,BKN,BKN,0.00,0.0,WeatherDisplay:10.37,2013-07-30 09:05:00,
2013-07-30 05:10:00,67.9,66.7,29.98,North,359,5.0,9.0,96,0.00,BKN,BKN,0.00,0.0,WeatherDisplay:10.37,2013-07-30 09:10:00,
2013-07-30 05:15:00,67.8,66.6,29.98,North,349,3.0,7.0,96,0.00,BKN,BKN,0.00,0.0,WeatherDisplay:10.37,2013-07-30 09:15:00,
2013-07-30 05:20:00,67.7,66.6,29.98,North,354,5.0,10.0,96,0.00,BKN,BKN,0.00,0.0,WeatherDisplay:10.37,2013-07-30 09:20:00,
2013-07-30 05:25:00,67.6,66.4,29.98,North,358,2.0,10.0,96,0.00,BKN,BKN,0.00,0.0,WeatherDisplay:10.37,2013-07-30 09:25:00,
2013-07-30 05:30:00,67.5,66.3,29.99,North,350,6.0,12.0,96,0.00,BKN,BKN,0.00,0.0,WeatherDisplay:10.37,2013-07-30 09:30:00,
2013-07-30 05:35:00,67.3,66.1,29.99,NNW,347,3.0,10.0,96,0.00,BKN,BKN,0.00,0.0,WeatherDisplay:10.37,2013-07-30 09:35:00,
2013-07-30 05:40:00,67.1,65.9,29.99,North,350,7.0,12.0,96,0.00,BKN,BKN,0.00,0.0,WeatherDisplay:10.37,2013-07-30 09:40:00,
2013-07-30 05:45:00,67.0,65.8,29.99,North,357,3.0,10.0,96,0.00,BKN,BKN,0.00,0.0,WeatherDisplay:10.37,2013-07-30 09:45:00,
2013-07-30 05:50:00,66.9,65.8,29.99,North,2,6.0,10.0,96,0.00,BKN,BKN,0.00,0.0,WeatherDisplay:10.37,2013-07-30 09:50:00,
2013-07-30 05:55:00,66.9,65.7,29.99,North,350,2.0,6.0,96,0.00,BKN,BKN,0.00,0.0,WeatherDisplay:10.37,2013-07-30 09:55:00,
2013-07-30 06:00:00,66.9,66.0,29.99,North,349,3.0,10.0,97,0.00,BKN,BKN,0.00,9.0,WeatherDisplay:10.37,2013-07-30 10:00:00,
2013-07-30 06:10:00,66.8,65.9,29.99,North,0,5.0,12.0,97,0.00,OVC,OVC,0.00,14.0,WeatherDisplay:10.37,2013-07-30 10:10:00,
2013-07-30 06:15:00,66.8,65.9,29.99,North,360,6.0,17.0,97,0.00,OVC,OVC,0.00,16.0,WeatherDisplay:10.37,2013-07-30 10:15:00,
2013-07-30 06:20:00,66.8,65.9,29.99,NNW,345,3.0,17.0,97,0.00,OVC,OVC,0.00,18.0,WeatherDisplay:10.37,2013-07-30 10:20:00,
2013-07-30 06:25:00,66.6,65.7,29.99,NNW,345,3.0,13.0,97,0.00,OVC,OVC,0.00,33.0,WeatherDisplay:10.37,2013-07-30 10:25:00,
2013-07-30 06:30:00,66.4,65.6,29.99,North,354,6.0,10.0,97,0.00,OVC,OVC,0.00,35.0,WeatherDisplay:10.37,2013-07-30 10:30:00,
2013-07-30 06:35:00,66.3,65.1,29.99,North,355,3.0,10.0,96,0.00,OVC,OVC,0.00,44.0,WeatherDisplay:10.37,2013-07-30 10:35:00,
2013-07-30 06:40:00,66.3,65.1,29.99,North,356,6.0,12.0,96,0.00,OVC,OVC,0.00,51.0,WeatherDisplay:10.37,2013-07-30 10:40:00,
2013-07-30 06:45:00,66.2,65.0,30.00,North,359,5.0,12.0,96,0.00,OVC,OVC,0.00,51.0,WeatherDisplay:10.37,2013-07-30 10:45:00,
2013-07-30 06:50:00,66.1,64.9,30.00,North,358,2.0,12.0,96,0.00,OVC,OVC,0.00,62.0,WeatherDisplay:10.37,2013-07-30 10:50:00,
2013-07-30 06:55:00,66.2,65.0,30.00,North,359,3.0,8.0,96,0.00,OVC,OVC,0.00,65.0,WeatherDisplay:10.37,2013-07-30 10:55:00,
2013-07-30 07:00:00,66.2,65.0,30.00,North,0,3.0,12.0,96,0.00,OVC,OVC,0.00,69.0,WeatherDisplay:10.37,2013-07-30 11:00:00,
2013-07-30 07:05:00,66.2,65.1,30.00,North,359,3.0,9.0,96,0.00,OVC,OVC,0.00,76.0,WeatherDisplay:10.37,2013-07-30 11:05:00,
2013-07-30 07:10:00,66.3,65.1,30.00,North,4,2.0,6.0,96,0.00,OVC,OVC,0.00,77.0,WeatherDisplay:10.37,2013-07-30 11:10:00,
2013-07-30 07:15:00,66.5,65.3,30.00,North,359,5.0,6.0,96,0.00,OVC,OVC,0.00,79.0,WeatherDisplay:10.37,2013-07-30 11:15:00,
2013-07-30 07:20:00,66.5,65.3,30.00,North,351,6.0,10.0,96,0.00,OVC,OVC,0.00,90.0,WeatherDisplay:10.37,2013-07-30 11:20:00,
2013-07-30 07:25:00,66.6,65.4,30.00,North,350,6.0,12.0,96,0.00,OVC,OVC,0.00,95.0,WeatherDisplay:10.37,2013-07-30 11:25:00,
2013-07-30 07:30:00,66.6,65.4,30.00,North,352,5.0,12.0,96,0.00,OVC,OVC,0.00,111.0,WeatherDisplay:10.37,2013-07-30 11:30:00,
2013-07-30 07:35:00,66.7,65.2,30.00,North,357,5.0,10.0,95,0.00,OVC,OVC,0.00,100.0,WeatherDisplay:10.37,2013-07-30 11:35:00,
2013-07-30 07:40:00,66.7,65.2,30.00,North,356,3.0,10.0,95,0.00,OVC,OVC,0.00,111.0,WeatherDisplay:10.37,2013-07-30 11:40:00,
2013-07-30 07:45:00,66.9,65.4,30.01,North,357,5.0,12.0,95,0.00,OVC,OVC,0.00,202.0,WeatherDisplay:10.37,2013-07-30 11:45:00,
2013-07-30 07:50:00,67.1,65.6,30.01,North,357,6.0,12.0,95,0.00,OVC,OVC,0.00,251.0,WeatherDisplay:10.37,2013-07-30 11:50:00,
2013-07-30 07:55:00,67.3,65.8,30.01,North,351,7.0,12.0,95,0.00,OVC,OVC,0.00,232.0,WeatherDisplay:10.37,2013-07-30 11:55:00,
2013-07-30 08:00:00,67.6,65.8,30.01,North,351,6.0,12.0,94,0.00,OVC,OVC,0.00,236.0,WeatherDisplay:10.37,2013-07-30 12:00:00,
2013-07-30 08:10:00,67.9,65.8,30.01,North,352,5.0,10.0,93,0.00,CLR,CLR,0.00,308.0,WeatherDisplay:10.37,2013-07-30 12:10:00,
2013-07-30 08:15:00,68.2,65.8,30.02,NNW,342,5.0,10.0,92,0.00,CLR,CLR,0.00,294.0,WeatherDisplay:10.37,2013-07-30 12:15:00,
2013-07-30 08:20:00,68.6,65.8,30.02,North,349,7.0,12.0,91,0.00,CLR,CLR,0.00,251.0,WeatherDisplay:10.37,2013-07-30 12:20:00,
2013-07-30 08:25:00,68.9,65.5,30.02,North,359,7.0,14.0,89,0.00,CLR,CLR,0.00,276.0,WeatherDisplay:10.37,2013-07-30 12:25:00,
2013-07-30 08:30:00,69.1,65.4,30.02,North,355,5.0,12.0,88,0.00,CLR,CLR,0.00,343.0,WeatherDisplay:10.37,2013-07-30 12:30:00,
2013-07-30 08:35:00,69.5,65.1,30.02,North,354,6.0,9.0,86,0.00,CLR,CLR,0.00,348.0,WeatherDisplay:10.37,2013-07-30 12:35:00,
2013-07-30 08:40:00,69.8,64.8,30.02,North,354,6.0,13.0,84,0.00,CLR,CLR,0.00,329.0,WeatherDisplay:10.37,2013-07-30 12:40:00,
2013-07-30 08:45:00,70.2,65.1,30.02,NNW,345,5.0,13.0,84,0.00,CLR,CLR,0.00,429.0,WeatherDisplay:10.37,2013-07-30 12:45:00,
2013-07-30 08:50:00,70.8,64.7,30.02,North,352,6.0,12.0,81,0.00,CLR,CLR,0.00,499.0,WeatherDisplay:10.37,2013-07-30 12:50:00,
2013-07-30 08:55:00,71.5,65.0,30.02,North,0,3.0,10.0,80,0.00,CLR,CLR,0.00,482.0,WeatherDisplay:10.37,2013-07-30 12:55:00,
2013-07-30 09:00:00,71.7,63.7,30.02,NNW,348,7.0,13.0,76,0.00,CLR,CLR,0.00,531.0,WeatherDisplay:10.37,2013-07-30 13:00:00,
2013-07-30 09:05:00,71.6,64.0,30.02,North,355,6.0,12.0,77,0.00,CLR,CLR,0.00,536.0,WeatherDisplay:10.37,2013-07-30 13:05:00,
2013-07-30 09:10:00,72.3,63.9,30.02,North,1,7.0,13.0,75,0.00,CLR,CLR,0.00,552.0,WeatherDisplay:10.37,2013-07-30 13:10:00,
2013-07-30 09:15:00,72.6,64.2,30.02,North,352,5.0,13.0,75,0.00,CLR,CLR,0.00,564.0,WeatherDisplay:10.37,2013-07-30 13:15:00,
2013-07-30 09:20:00,72.4,63.3,30.02,North,355,5.0,13.0,73,0.00,CLR,CLR,0.00,578.0,WeatherDisplay:10.37,2013-07-30 13:20:00,
2013-07-30 09:25:00,72.4,63.3,30.02,North,353,5.0,13.0,73,0.00,CLR,CLR,0.00,591.0,WeatherDisplay:10.37,2013-07-30 13:25:00,
2013-07-30 09:30:00,72.3,62.8,30.02,NNW,347,5.0,12.0,72,0.00,CLR,CLR,0.00,605.0,WeatherDisplay:10.37,2013-07-30 13:30:00,
2013-07-30 09:35:00,73.0,63.9,30.02,NNW,343,5.0,7.0,73,0.00,CLR,CLR,0.00,613.0,WeatherDisplay:10.37,2013-07-30 13:35:00,
2013-07-30 09:40:00,73.6,63.6,30.02,North,359,5.0,10.0,71,0.00,CLR,CLR,0.00,628.0,WeatherDisplay:10.37,2013-07-30 13:40:00,
2013-07-30 09:45:00,73.7,63.4,30.03,North,7,5.0,9.0,70,0.00,CLR,CLR,0.00,638.0,WeatherDisplay:10.37,2013-07-30 13:45:00,
2013-07-30 09:50:00,74.1,63.3,30.03,NNE,12,5.0,12.0,69,0.00,CLR,CLR,0.00,654.0,WeatherDisplay:10.37,2013-07-30 13:50:00,
2013-07-30 09:55:00,74.0,63.2,30.03,North,1,7.0,12.0,69,0.00,CLR,CLR,0.00,663.0,WeatherDisplay:10.37,2013-07-30 13:55:00,
2013-07-30 10:00:00,74.0,62.8,30.03,North,1,3.0,12.0,68,0.00,CLR,CLR,0.00,677.0,WeatherDisplay:10.37,2013-07-30 14:00:00,
2013-07-30 10:05:00,74.3,63.9,30.03,North,8,3.0,8.0,70,0.00,CLR,CLR,0.00,686.0,WeatherDisplay:10.37,2013-07-30 14:05:00,
2013-07-30 10:10:00,74.5,63.2,30.03,North,356,6.0,12.0,68,0.00,CLR,CLR,0.00,698.0,WeatherDisplay:10.37,2013-07-30 14:10:00,
2013-07-30 10:15:00,74.7,63.9,30.03,North,353,5.0,10.0,69,0.00,CLR,CLR,0.00,705.0,WeatherDisplay:10.37,2013-07-30 14:15:00,
2013-07-30 10:20:00,74.1,63.3,30.03,NNW,347,9.0,16.0,69,0.00,CLR,CLR,0.00,717.0,WeatherDisplay:10.37,2013-07-30 14:20:00,
2013-07-30 10:25:00,73.7,62.5,30.03,North,349,7.0,15.0,68,0.00,CLR,CLR,0.00,728.0,WeatherDisplay:10.37,2013-07-30 14:25:00,
2013-07-30 10:30:00,73.9,62.7,30.03,NNW,345,8.0,14.0,68,0.00,CLR,CLR,0.00,738.0,WeatherDisplay:10.37,2013-07-30 14:30:00,
2013-07-30 10:35:00,73.8,62.6,30.03,North,350,5.0,13.0,68,0.00,CLR,CLR,0.00,747.0,WeatherDisplay:10.37,2013-07-30 14:35:00,
2013-07-30 10:40:00,74.8,63.1,30.03,North,355,7.0,13.0,67,0.00,CLR,CLR,0.00,756.0,WeatherDisplay:10.37,2013-07-30 14:40:00,
2013-07-30 10:45:00,74.6,62.5,30.03,North,352,7.0,14.0,66,0.00,CLR,CLR,0.00,765.0,WeatherDisplay:10.37,2013-07-30 14:45:00,
2013-07-30 10:55:00,74.7,63.4,30.03,North,352,5.0,13.0,68,0.00,CLR,CLR,0.00,780.0,WeatherDisplay:10.37,2013-07-30 14:55:00,
2013-07-30 11:00:00,75.3,63.2,30.04,North,1,2.0,12.0,66,0.00,CLR,CLR,0.00,789.0,WeatherDisplay:10.37,2013-07-30 15:00:00,
2013-07-30 11:05:00,75.7,63.1,30.04,North,10,7.0,12.0,65,0.00,CLR,CLR,0.00,796.0,WeatherDisplay:10.37,2013-07-30 15:05:00,
2013-07-30 11:10:00,75.3,62.7,30.04,North,2,7.0,13.0,65,0.00,CLR,CLR,0.00,807.0,WeatherDisplay:10.37,2013-07-30 15:10:00,
2013-07-30 11:15:00,75.3,62.7,30.03,North,357,7.0,12.0,65,0.00,CLR,CLR,0.00,812.0,WeatherDisplay:10.37,2013-07-30 15:15:00,
2013-07-30 11:20:00,75.2,63.0,30.03,North,3,6.0,14.0,66,0.00,CLR,CLR,0.00,817.0,WeatherDisplay:10.37,2013-07-30 15:20:00,
2013-07-30 11:25:00,76.2,64.0,30.03,North,1,5.0,14.0,66,0.00,CLR,CLR,0.00,826.0,WeatherDisplay:10.37,2013-07-30 15:25:00,
2013-07-30 11:30:00,76.4,63.3,30.03,North,3,7.0,13.0,64,0.00,CLR,CLR,0.00,833.0,WeatherDisplay:10.37,2013-07-30 15:30:00,
2013-07-30 11:35:00,76.7,62.7,30.03,North,10,7.0,13.0,62,0.00,CLR,CLR,0.00,838.0,WeatherDisplay:10.37,2013-07-30 15:35:00,
2013-07-30 11:40:00,76.3,63.3,30.03,North,8,6.0,12.0,64,0.00,CLR,CLR,0.00,844.0,WeatherDisplay:10.37,2013-07-30 15:40:00,
2013-07-30 11:50:00,76.4,63.8,30.03,North,9,6.0,13.0,65,0.00,CLR,CLR,0.00,853.0,WeatherDisplay:10.37,2013-07-30 15:50:00,
2013-07-30 11:55:00,76.6,63.5,30.03,North,9,3.0,13.0,64,0.00,CLR,CLR,0.00,860.0,WeatherDisplay:10.37,2013-07-30 15:55:00,
2013-07-30 12:00:00,76.5,62.9,30.03,North,5,6.0,13.0,63,0.00,CLR,CLR,0.00,865.0,WeatherDisplay:10.37,2013-07-30 16:00:00,
2013-07-30 12:05:00,77.1,63.5,30.03,North,8,7.0,15.0,63,0.00,CLR,CLR,0.00,868.0,WeatherDisplay:10.37,2013-07-30 16:05:00,
2013-07-30 12:10:00,76.6,62.6,30.03,North,4,7.0,12.0,62,0.00,CLR,CLR,0.00,872.0,WeatherDisplay:10.37,2013-07-30 16:10:00,
2013-07-30 12:15:00,76.8,62.8,30.03,North,3,6.0,12.0,62,0.00,CLR,CLR,0.00,877.0,WeatherDisplay:10.37,2013-07-30 16:15:00,
2013-07-30 12:20:00,77.4,63.8,30.03,North,9,3.0,12.0,63,0.00,CLR,CLR,0.00,877.0,WeatherDisplay:10.37,2013-07-30 16:20:00,
2013-07-30 12:25:00,77.9,63.4,30.03,NNE,14,5.0,13.0,61,0.00,CLR,CLR,0.00,882.0,WeatherDisplay:10.37,2013-07-30 16:25:00,
2013-07-30 12:30:00,78.0,62.5,30.03,NNE,12,3.0,12.0,59,0.00,CLR,CLR,0.00,882.0,WeatherDisplay:10.37,2013-07-30 16:30:00,
2013-07-30 12:35:00,78.1,63.1,30.03,North,4,5.0,13.0,60,0.00,CLR,CLR,0.00,886.0,WeatherDisplay:10.37,2013-07-30 16:35:00,
2013-07-30 12:40:00,77.3,62.8,30.03,North,1,3.0,12.0,61,0.00,CLR,CLR,0.00,884.0,WeatherDisplay:10.37,2013-07-30 16:40:00,
2013-07-30 12:45:00,77.7,63.2,30.02,North,11,7.0,12.0,61,0.00,CLR,CLR,0.00,884.0,WeatherDisplay:10.37,2013-07-30 16:45:00,
2013-07-30 12:50:00,77.9,63.4,30.02,North,9,3.0,12.0,61,0.00,CLR,CLR,0.00,882.0,WeatherDisplay:10.37,2013-07-30 16:50:00,
2013-07-30 12:55:00,78.5,63.4,30.02,North,358,8.0,12.0,60,0.00,CLR,CLR,0.00,888.0,WeatherDisplay:10.37,2013-07-30 16:55:00,
2013-07-30 13:00:00,78.2,63.7,30.02,NNE,14,3.0,10.0,61,0.00,CLR,CLR,0.00,888.0,WeatherDisplay:10.37,2013-07-30 17:00:00,
2013-07-30 13:05:00,78.5,63.5,30.02,NNE,22,5.0,9.0,60,0.00,CLR,CLR,0.00,886.0,WeatherDisplay:10.37,2013-07-30 17:05:00,
2013-07-30 13:15:00,78.5,64.4,30.02,NNE,19,3.0,9.0,62,0.00,CLR,CLR,0.00,881.0,WeatherDisplay:10.37,2013-07-30 17:15:00,
2013-07-30 13:20:00,79.0,64.4,30.02,NNE,23,5.0,9.0,61,0.00,CLR,CLR,0.00,881.0,WeatherDisplay:10.37,2013-07-30 17:20:00,
2013-07-30 13:25:00,79.6,64.9,30.02,NNE,29,1.0,5.0,61,0.00,CLR,CLR,0.00,877.0,WeatherDisplay:10.37,2013-07-30 17:25:00,
2013-07-30 13:30:00,79.4,62.3,30.02,North,9,8.0,12.0,56,0.00,CLR,CLR,0.00,874.0,WeatherDisplay:10.37,2013-07-30 17:30:00,
2013-07-30 13:35:00,79.1,63.6,30.02,North,4,5.0,12.0,59,0.00,CLR,CLR,0.00,865.0,WeatherDisplay:10.37,2013-07-30 17:35:00,
2013-07-30 13:40:00,79.3,62.8,30.02,NNE,19,6.0,10.0,57,0.00,CLR,CLR,0.00,868.0,WeatherDisplay:10.37,2013-07-30 17:40:00,
2013-07-30 13:45:00,79.3,62.7,30.02,NNE,13,6.0,10.0,57,0.00,CLR,CLR,0.00,865.0,WeatherDisplay:10.37,2013-07-30 17:45:00,
2013-07-30 13:50:00,79.1,62.5,30.02,NNE,14,3.0,12.0,57,0.00,CLR,CLR,0.00,856.0,WeatherDisplay:10.37,2013-07-30 17:50:00,
2013-07-30 13:55:00,79.2,63.1,30.02,North,10,1.0,9.0,58,0.00,CLR,CLR,0.00,854.0,WeatherDisplay:10.37,2013-07-30 17:55:00,
2013-07-30 14:00:00,78.9,63.3,30.02,North,356,3.0,10.0,59,0.00,CLR,CLR,0.00,847.0,WeatherDisplay:10.37,2013-07-30 18:00:00,
2013-07-30 14:05:00,80.0,62.9,30.02,North,8,1.0,10.0,56,0.00,CLR,CLR,0.00,842.0,WeatherDisplay:10.37,2013-07-30 18:05:00,
2013-07-30 14:10:00,80.0,62.9,30.02,North,11,2.0,7.0,56,0.00,CLR,CLR,0.00,795.0,WeatherDisplay:10.37,2013-07-30 18:10:00,
2013-07-30 14:15:00,79.8,63.7,30.02,NNE,19,1.0,6.0,58,0.00,CLR,CLR,0.00,833.0,WeatherDisplay:10.37,2013-07-30 18:15:00,
2013-07-30 14:20:00,79.7,63.6,30.02,North,357,3.0,10.0,58,0.00,CLR,CLR,0.00,833.0,WeatherDisplay:10.37,2013-07-30 18:20:00,
2013-07-30 14:25:00,81.2,64.0,30.02,North,3,2.0,5.0,56,0.00,CLR,CLR,0.00,819.0,WeatherDisplay:10.37,2013-07-30 18:25:00,
2013-07-30 14:35:00,80.3,63.7,30.01,NNE,18,2.0,5.0,57,0.00,CLR,CLR,0.00,798.0,WeatherDisplay:10.37,2013-07-30 18:35:00,
2013-07-30 14:40:00,81.0,62.8,30.01,NNE,15,3.0,7.0,54,0.00,CLR,CLR,0.00,796.0,WeatherDisplay:10.37,2013-07-30 18:40:00,
2013-07-30 14:50:00,79.6,63.5,30.01,NE,36,1.0,4.0,58,0.00,CLR,CLR,0.00,779.0,WeatherDisplay:10.37,2013-07-30 18:50:00,
2013-07-30 14:55:00,80.7,64.6,30.01,NE,41,2.0,5.0,58,0.00,CLR,CLR,0.00,775.0,WeatherDisplay:10.37,2013-07-30 18:55:00,
2013-07-30 15:00:00,81.5,64.3,30.01,NNE,29,2.0,5.0,56,0.00,CLR,CLR,0.00,775.0,WeatherDisplay:10.37,2013-07-30 19:00:00,
2013-07-30 15:05:00,81.1,63.9,30.01,NE,41,1.0,4.0,56,0.00,CLR,CLR,0.00,763.0,WeatherDisplay:10.37,2013-07-30 19:05:00,
2013-07-30 15:10:00,81.3,64.1,30.01,NE,45,2.0,7.0,56,0.00,CLR,CLR,0.00,773.0,WeatherDisplay:10.37,2013-07-30 19:10:00,
2013-07-30 15:15:00,80.9,62.7,30.00,NW,313,2.0,5.0,54,0.00,CLR,CLR,0.00,786.0,WeatherDisplay:10.37,2013-07-30 19:15:00,
2013-07-30 15:20:00,80.7,64.5,30.00,SW,216,0.0,4.0,58,0.00,CLR,CLR,0.00,754.0,WeatherDisplay:10.37,2013-07-30 19:20:00,
2013-07-30 15:25:00,81.4,63.2,30.00,SSE,149,0.0,3.0,54,0.00,CLR,CLR,0.00,740.0,WeatherDisplay:10.37,2013-07-30 19:25:00,
2013-07-30 15:30:00,80.9,63.8,30.00,ENE,65,0.0,2.0,56,0.00,CLR,CLR,0.00,731.0,WeatherDisplay:10.37,2013-07-30 19:30:00,
2013-07-30 15:35:00,80.1,63.5,30.00,SSW,199,2.0,5.0,57,0.00,CLR,CLR,0.00,687.0,WeatherDisplay:10.37,2013-07-30 19:35:00,
2013-07-30 15:40:00,80.0,64.4,30.00,SW,215,6.0,12.0,59,0.00,CLR,CLR,0.00,749.0,WeatherDisplay:10.37,2013-07-30 19:40:00,
2013-07-30 15:45:00,78.9,64.8,30.00,SW,224,3.0,6.0,62,0.00,CLR,CLR,0.00,160.0,WeatherDisplay:10.37,2013-07-30 19:45:00,
2013-07-30 15:50:00,78.4,65.2,30.00,SSW,204,2.0,5.0,64,0.00,CLR,CLR,0.00,682.0,WeatherDisplay:10.37,2013-07-30 19:50:00,
2013-07-30 15:55:00,78.8,65.6,30.00,SSW,203,2.0,6.0,64,0.00,CLR,CLR,0.00,670.0,WeatherDisplay:10.37,2013-07-30 19:55:00,
2013-07-30 16:00:00,79.1,64.9,30.00,WSW,238,2.0,5.0,62,0.00,CLR,CLR,0.00,703.0,WeatherDisplay:10.37,2013-07-30 20:00:00,
2013-07-30 16:05:00,79.2,64.6,30.00,SW,226,3.0,10.0,61,0.00,CLR,CLR,0.00,654.0,WeatherDisplay:10.37,2013-07-30 20:05:00,
2013-07-30 16:10:00,79.3,64.7,30.00,SSW,196,2.0,7.0,61,0.00,CLR,CLR,0.00,638.0,WeatherDisplay:10.37,2013-07-30 20:10:00,
2013-07-30 16:15:00,79.3,64.7,30.00,SSW,199,3.0,9.0,61,0.00,CLR,CLR,0.00,596.0,WeatherDisplay:10.37,2013-07-30 20:15:00,
2013-07-30 16:20:00,79.4,63.8,30.00,SSW,206,3.0,7.0,59,0.00,CLR,CLR,0.00,603.0,WeatherDisplay:10.37,2013-07-30 20:20:00,
2013-07-30 16:25:00,79.2,64.1,30.00,SSW,205,2.0,7.0,60,0.00,CLR,CLR,0.00,606.0,WeatherDisplay:10.37,2013-07-30 20:25:00,
2013-07-30 16:30:00,79.6,65.4,30.00,SSW,208,3.0,9.0,62,0.00,CLR,CLR,0.00,619.0,WeatherDisplay:10.37,2013-07-30 20:30:00,
2013-07-30 16:35:00,79.2,65.5,30.00,SSW,212,5.0,7.0,63,0.00,CLR,CLR,0.00,120.0,WeatherDisplay:10.37,2013-07-30 20:35:00,
2013-07-30 16:40:00,78.5,66.2,30.00,SSW,205,5.0,8.0,66,0.00,CLR,CLR,0.00,529.0,WeatherDisplay:10.37,2013-07-30 20:40:00,
2013-07-30 16:45:00,78.4,65.7,30.00,South,176,2.0,6.0,65,0.00,CLR,CLR,0.00,508.0,WeatherDisplay:10.37,2013-07-30 20:45:00,
2013-07-30 16:50:00,79.0,66.7,30.00,South,184,3.0,7.0,66,0.00,CLR,CLR,0.00,487.0,WeatherDisplay:10.37,2013-07-30 20:50:00,
2013-07-30 16:55:00,78.9,65.7,30.00,South,187,5.0,7.0,64,0.00,CLR,CLR,0.00,475.0,WeatherDisplay:10.37,2013-07-30 20:55:00,
2013-07-30 17:00:00,78.6,66.3,30.00,South,173,1.0,6.0,66,0.00,CLR,CLR,0.00,461.0,WeatherDisplay:10.37,2013-07-30 21:00:00,
2013-07-30 17:10:00,79.4,65.7,30.00,South,174,2.0,5.0,63,0.00,CLR,CLR,0.00,438.0,WeatherDisplay:10.37,2013-07-30 21:10:00,
2013-07-30 17:15:00,79.7,65.5,30.00,South,191,1.0,4.0,62,0.00,CLR,CLR,0.00,420.0,WeatherDisplay:10.37,2013-07-30 21:15:00,
2013-07-30 17:20:00,79.3,64.7,30.00,South,190,3.0,7.0,61,0.00,CLR,CLR,0.00,408.0,WeatherDisplay:10.37,2013-07-30 21:20:00,
2013-07-30 17:25:00,78.9,64.3,30.00,SSW,197,2.0,6.0,61,0.00,CLR,CLR,0.00,396.0,WeatherDisplay:10.37,2013-07-30 21:25:00,
2013-07-30 17:30:00,78.9,65.2,30.00,South,179,0.0,5.0,63,0.00,CLR,CLR,0.00,380.0,WeatherDisplay:10.37,2013-07-30 21:30:00,
2013-07-30 17:40:00,78.7,65.0,30.00,South,182,1.0,6.0,63,0.00,CLR,CLR,0.00,353.0,WeatherDisplay:10.37,2013-07-30 21:40:00,
2013-07-30 17:45:00,78.7,63.2,30.00,South,185,3.0,7.0,59,0.00,CLR,CLR,0.00,341.0,WeatherDisplay:10.37,2013-07-30 21:45:00,
2013-07-30 17:50:00,78.6,63.6,30.00,South,188,1.0,6.0,60,0.00,CLR,CLR,0.00,330.0,WeatherDisplay:10.37,2013-07-30 21:50:00,
2013-07-30 17:55:00,78.8,64.7,30.00,SSE,160,1.0,2.0,62,0.00,CLR,CLR,0.00,216.0,WeatherDisplay:10.37,2013-07-30 21:55:00,
2013-07-30 18:00:00,78.8,63.7,30.00,SSE,165,3.0,6.0,60,0.00,CLR,CLR,0.00,301.0,WeatherDisplay:10.37,2013-07-30 22:00:00,
2013-07-30 18:05:00,78.8,63.3,30.00,South,184,1.0,4.0,59,0.00,CLR,CLR,0.00,253.0,WeatherDisplay:10.37,2013-07-30 22:05:00,
2013-07-30 18:10:00,78.7,65.5,30.00,South,176,2.0,5.0,64,0.00,CLR,CLR,0.00,63.0,WeatherDisplay:10.37,2013-07-30 22:10:00,
2013-07-30 18:15:00,78.4,66.6,30.00,SSE,162,1.0,4.0,67,0.00,CLR,CLR,0.00,79.0,WeatherDisplay:10.37,2013-07-30 22:15:00,
2013-07-30 18:20:00,77.9,66.9,30.00,SSE,154,0.0,3.0,69,0.00,CLR,CLR,0.00,125.0,WeatherDisplay:10.37,2013-07-30 22:20:00,
2013-07-30 18:25:00,77.6,67.9,30.00,SSE,160,0.0,2.0,72,0.00,CLR,CLR,0.00,271.0,WeatherDisplay:10.37,2013-07-30 22:25:00,
2013-07-30 18:30:00,77.8,67.6,30.00,SSE,160,1.0,3.0,71,0.00,CLR,CLR,0.00,288.0,WeatherDisplay:10.37,2013-07-30 22:30:00,
2013-07-30 18:35:00,78.2,68.0,30.00,South,171,1.0,4.0,71,0.00,CLR,CLR,0.00,271.0,WeatherDisplay:10.37,2013-07-30 22:35:00,
2013-07-30 18:40:00,78.3,67.7,30.00,SSW,207,2.0,4.0,70,0.00,CLR,CLR,0.00,230.0,WeatherDisplay:10.37,2013-07-30 22:40:00,
2013-07-30 18:45:00,77.9,66.9,30.01,SW,220,2.0,5.0,69,0.00,CLR,CLR,0.00,207.0,WeatherDisplay:10.37,2013-07-30 22:45:00,
2013-07-30 18:50:00,77.6,67.0,30.01,SW,214,2.0,5.0,70,0.00,CLR,CLR,0.00,176.0,WeatherDisplay:10.37,2013-07-30 22:50:00,
2013-07-30 18:55:00,77.4,67.3,30.01,SW,224,1.0,4.0,71,0.00,CLR,CLR,0.00,149.0,WeatherDisplay:10.37,2013-07-30 22:55:00,
2013-07-30 19:00:00,76.9,66.8,30.01,SW,222,2.0,6.0,71,0.00,CLR,CLR,0.00,132.0,WeatherDisplay:10.37,2013-07-30 23:00:00,
2013-07-30 19:10:00,76.4,67.9,30.01,SSW,206,1.0,5.0,75,0.00,CLR,CLR,0.00,56.0,WeatherDisplay:10.37,2013-07-30 23:10:00,
2013-07-30 19:15:00,76.0,67.1,30.02,SW,217,2.0,4.0,74,0.00,CLR,CLR,0.00,77.0,WeatherDisplay:10.37,2013-07-30 23:15:00,
2013-07-30 19:20:00,75.7,66.8,30.02,SW,221,1.0,4.0,74,0.00,CLR,CLR,0.00,67.0,WeatherDisplay:10.37,2013-07-30 23:20:00,
2013-07-30 19:25:00,75.6,67.5,30.02,SW,224,1.0,2.0,76,0.00,CLR,CLR,0.00,54.0,WeatherDisplay:10.37,2013-07-30 23:25:00,
2013-07-30 19:30:00,75.6,67.9,30.02,SW,224,0.0,4.0,77,0.00,CLR,CLR,0.00,46.0,WeatherDisplay:10.37,2013-07-30 23:30:00,
2013-07-30 19:40:00,75.2,67.5,30.02,SW,223,0.0,3.0,77,0.00,CLR,CLR,0.00,12.0,WeatherDisplay:10.37,2013-07-30 23:40:00,
2013-07-30 19:45:00,74.8,67.1,30.02,SW,223,0.0,3.0,77,0.00,CLR,CLR,0.00,9.0,WeatherDisplay:10.37,2013-07-30 23:45:00,
2013-07-30 19:50:00,74.3,66.6,30.02,SW,223,1.0,4.0,77,0.00,CLR,CLR,0.00,5.0,WeatherDisplay:10.37,2013-07-30 23:50:00,
2013-07-30 19:55:00,73.9,66.2,30.02,SW,223,0.0,3.0,77,0.00,CLR,CLR,0.00,0.0,WeatherDisplay:10.37,2013-07-30 23:55:00,
2013-07-30 20:00:00,73.6,65.9,30.03,SW,223,0.0,1.0,77,0.00,CLR,CLR,0.00,0.0,WeatherDisplay:10.37,2013-07-31 00:00:00,
2013-07-30 20:05:00,73.3,65.7,30.03,SW,223,0.0,1.0,77,0.00,CLR,CLR,0.00,0.0,WeatherDisplay:10.37,2013-07-31 00:05:00,
2013-07-30 20:10:00,73.0,66.1,30.03,SW,223,0.0,2.0,79,0.00,CLR,CLR,0.00,0.0,WeatherDisplay:10.37,2013-07-31 00:10:00,
2013-07-30 20:15:00,72.4,65.1,30.03,SW,223,1.0,3.0,78,0.00,CLR,CLR,0.00,0.0,WeatherDisplay:10.37,2013-07-31 00:15:00,
2013-07-30 20:20:00,72.0,65.5,30.03,SW,223,0.0,1.0,80,0.00,CLR,CLR,0.00,0.0,WeatherDisplay:10.37,2013-07-31 00:20:00,
2013-07-30 20:25:00,71.8,65.7,30.03,SW,223,0.0,0.0,81,0.00,CLR,CLR,0.00,0.0,WeatherDisplay:10.37,2013-07-31 00:25:00,
2013-07-30 20:30:00,71.3,65.6,30.03,SW,223,0.0,1.0,82,0.00,CLR,CLR,0.00,0.0,WeatherDisplay:10.37,2013-07-31 00:30:00,
2013-07-30 20:35:00,71.0,65.6,30.03,SW,223,0.0,0.0,83,0.00,CLR,CLR,0.00,0.0,WeatherDisplay:10.37,2013-07-31 00:35:00,
2013-07-30 20:40:00,70.8,65.4,30.03,SW,223,0.0,1.0,83,0.00,CLR,CLR,0.00,0.0,WeatherDisplay:10.37,2013-07-31 00:40:00,
2013-07-30 20:45:00,70.6,65.5,30.03,SW,223,0.0,1.0,84,0.00,CLR,CLR,0.00,0.0,WeatherDisplay:10.37,2013-07-31 00:45:00,
2013-07-30 20:50:00,70.3,65.3,30.03,SW,223,0.0,1.0,84,0.00,CLR,CLR,0.00,0.0,WeatherDisplay:10.37,2013-07-31 00:50:00,
2013-07-30 20:55:00,70.1,65.4,30.03,SW,223,0.0,0.0,85,0.00,CLR,CLR,0.00,0.0,WeatherDisplay:10.37,2013-07-31 00:55:00,
2013-07-30 21:00:00,69.9,65.2,30.04,SW,223,0.0,0.0,85,0.00,CLR,CLR,0.00,0.0,WeatherDisplay:10.37,2013-07-31 01:00:00,
2013-07-30 21:05:00,69.7,65.4,30.04,SW,223,1.0,2.0,86,0.00,CLR,CLR,0.00,0.0,WeatherDisplay:10.37,2013-07-31 01:05:00,
2013-07-30 21:10:00,69.5,65.1,30.04,SW,223,0.0,2.0,86,0.00,CLR,CLR,0.00,0.0,WeatherDisplay:10.37,2013-07-31 01:10:00,
2013-07-30 21:20:00,69.1,65.1,30.04,SW,223,0.0,0.0,87,0.00,CLR,CLR,0.00,0.0,WeatherDisplay:10.37,2013-07-31 01:20:00,
2013-07-30 21:25:00,69.0,65.3,30.04,SW,223,0.0,0.0,88,0.00,CLR,CLR,0.00,0.0,WeatherDisplay:10.37,2013-07-31 01:25:00,
2013-07-30 21:30:00,68.8,65.1,30.03,SW,223,0.0,0.0,88,0.00,CLR,CLR,0.00,0.0,WeatherDisplay:10.37,2013-07-31 01:30:00,
2013-07-30 21:35:00,68.5,64.4,30.03,SW,223,0.0,0.0,87,0.00,CLR,CLR,0.00,0.0,WeatherDisplay:10.37,2013-07-31 01:35:00,
2013-07-30 21:40:00,68.3,64.9,30.03,SW,223,0.0,0.0,89,0.00,CLR,CLR,0.00,0.0,WeatherDisplay:10.37,2013-07-31 01:40:00,
2013-07-30 21:45:00,68.1,64.7,30.04,SW,223,0.0,0.0,89,0.00,CLR,CLR,0.00,0.0,WeatherDisplay:10.37,2013-07-31 01:45:00,
2013-07-30 21:50:00,68.0,65.0,30.04,SW,223,0.0,0.0,90,0.00,CLR,CLR,0.00,0.0,WeatherDisplay:10.37,2013-07-31 01:50:00,
2013-07-30 21:55:00,67.9,64.9,30.04,SW,223,0.0,0.0,90,0.00,CLR,CLR,0.00,0.0,WeatherDisplay:10.37,2013-07-31 01:55:00,
2013-07-30 22:00:00,67.7,64.7,30.04,SW,223,0.0,0.0,90,0.00,CLR,CLR,0.00,0.0,WeatherDisplay:10.37,2013-07-31 02:00:00,
2013-07-30 22:05:00,67.6,64.6,30.04,SW,223,0.0,0.0,90,0.00,CLR,CLR,0.00,0.0,WeatherDisplay:10.37,2013-07-31 02:05:00,
2013-07-30 22:10:00,67.4,64.4,30.04,SW,223,0.0,0.0,90,0.00,CLR,CLR,0.00,0.0,WeatherDisplay:10.37,2013-07-31 02:10:00,
2013-07-30 22:15:00,67.3,64.3,30.04,SW,223,0.0,0.0,90,0.00,CLR,CLR,0.00,0.0,WeatherDisplay:10.37,2013-07-31 02:15:00,
2013-07-30 22:20:00,67.2,64.5,30.04,SW,223,0.0,0.0,91,0.00,CLR,CLR,0.00,0.0,WeatherDisplay:10.37,2013-07-31 02:20:00,
2013-07-30 22:25:00,67.1,64.4,30.04,SW,223,0.0,0.0,91,0.00,CLR,CLR,0.00,0.0,WeatherDisplay:10.37,2013-07-31 02:25:00,
2013-07-30 22:30:00,67.0,64.3,30.04,SW,223,0.0,0.0,91,0.00,CLR,CLR,0.00,0.0,WeatherDisplay:10.37,2013-07-31 02:30:00,
2013-07-30 22:35:00,66.9,64.2,30.04,SW,223,0.0,0.0,91,0.00,CLR,CLR,0.00,0.0,WeatherDisplay:10.37,2013-07-31 02:35:00,
2013-07-30 22:40:00,66.7,64.0,30.04,SW,223,0.0,0.0,91,0.00,CLR,CLR,0.00,0.0,WeatherDisplay:10.37,2013-07-31 02:40:00,
2013-07-30 22:45:00,66.5,63.7,30.04,SW,223,0.0,0.0,91,0.00,CLR,CLR,0.00,0.0,WeatherDisplay:10.37,2013-07-31 02:45:00,
2013-07-30 22:50:00,66.3,63.6,30.04,SW,223,0.0,0.0,91,0.00,CLR,CLR,0.00,0.0,WeatherDisplay:10.37,2013-07-31 02:50:00,
2013-07-30 22:55:00,66.2,63.5,30.04,SW,223,0.0,0.0,91,0.00,CLR,CLR,0.00,0.0,WeatherDisplay:10.37,2013-07-31 02:55:00,
2013-07-30 23:00:00,66.0,63.6,30.04,SW,223,0.0,0.0,92,0.00,CLR,CLR,0.00,0.0,WeatherDisplay:10.37,2013-07-31 03:00:00,
2013-07-30 23:05:00,65.9,63.5,30.03,SW,223,0.0,0.0,92,0.00,CLR,CLR,0.00,0.0,WeatherDisplay:10.37,2013-07-31 03:05:00,
2013-07-30 23:10:00,65.8,63.4,30.03,SW,223,0.0,0.0,92,0.00,CLR,CLR,0.00,0.0,WeatherDisplay:10.37,2013-07-31 03:10:00,
2013-07-30 23:15:00,65.7,63.3,30.03,SW,223,0.0,0.0,92,0.00,CLR,CLR,0.00,0.0,WeatherDisplay:10.37,2013-07-31 03:15:00,
2013-07-30 23:20:00,65.6,63.2,30.03,SW,223,0.0,0.0,92,0.00,CLR,CLR,0.00,0.0,WeatherDisplay:10.37,2013-07-31 03:20:00,
2013-07-30 23:25:00,65.5,63.1,30.03,SW,223,0.0,0.0,92,0.00,CLR,CLR,0.00,0.0,WeatherDisplay:10.37,2013-07-31 03:25:00,
2013-07-30 23:30:00,65.5,63.1,30.03,SW,223,0.0,0.0,92,0.00,CLR,CLR,0.00,0.0,WeatherDisplay:10.37,2013-07-31 03:30:00,
2013-07-30 23:35:00,65.4,63.0,30.03,SW,223,0.0,0.0,92,0.00,CLR,CLR,0.00,0.0,WeatherDisplay:10.37,2013-07-31 03:35:00,
2013-07-30 23:40:00,65.4,63.3,30.03,SW,223,0.0,0.0,93,0.00,CLR,CLR,0.00,0.0,WeatherDisplay:10.37,2013-07-31 03:40:00,
2013-07-30 23:45:00,65.4,63.3,30.03,SW,223,0.0,0.0,93,0.00,CLR,CLR,0.00,0.0,WeatherDisplay:10.37,2013-07-31 03:45:00,
2013-07-30 23:50:00,65.4,63.3,30.03,SW,223,0.0,0.0,93,0.00,CLR,CLR,0.00,0.0,WeatherDisplay:10.37,2013-07-31 03:50:00,
2013-07-30 23:55:00,65.3,63.2,30.03,SW,223,0.0,0.0,93,0.00,CLR,CLR,0.00,0.0,WeatherDisplay:10.37,2013-07-31 03:55:00,